COSMOS 2251 DEB

Satellite information

Favourite Embed

Satellite Type and Status

DEBRISIN ORBIT

Key statistics

Satellite COSMOS 2251 DEB at a glance.

Uptime

11767

Days in orbit

Revolutions

≈ 14.5

Per day

Orbit

LEO

Low Earth Orbit

Inclination

74.0

Latest

Satellite identification and parameters

Extended collection of information and parameters for COSMOS 2251 DEB.

Object identification

Identified? True

Debris? True

Object name: COSMOS 2251 DEB

International designator: 1993-036BFK

Object number (NORAD): 37089

Object ID (CCSDS): 37089

Country: COMMONWEALTH OF INDEPENDENT STATES (CIS)

Current information (Y/N): Y

RCS size: SMALL

Orbital parameters

Period: 99.323 minutes

Inclination: 74.0401 deg

SMA: 7104.411 km

Apoapsis: 827.506 km

Periapsis: 625.045 km

RAAN: 341.8763 deg

Eccentricy: 0.01424895

Argument of periapsis: 107.0035 deg

Mean anomaly: 254.6796 deg

Mean motion: 14.49808551 rev/day

Mean motion (dot): 0.00015093 rev/day2

B* drag term: 0.0034340759 1/REarth

Two-line elements (TLE)

Creation date: Aug. 31, 2025, 2:26 a.m.

Reference frame: TEME

Reference center: EARTH

Epoch: Aug. 30, 2025, 1:04 p.m. UTC

TLE line 0: 0 COSMOS 2251 DEB

TLE line 1: 1 37089U 93036BFK 25242.54453123 .00015093 00000-0 34341-2 0 9995

TLE line 2: 2 37089 74.0401 341.8763 0142490 107.0035 254.6796 14.49808551645989

Live tracking on map

Real-time ground track for satellite COSMOS 2251 DEB.

In-orbit conjunctions

A list of the most updated potential collisions computed for object COSMOS 2251 DEB.

Target Orbit TCA Probability of collision Miss distance Type
SL-8 R/B LEO 2025-02-15 18:31:55 0.0002230515 603.0 (m) ROCKET BODY
FENGYUN 1C DEB SSO 2024-11-10 02:23:52 0.0003944061 471.0 (m) DEBRIS

Associated space launch

Military communications satellite. Destroyed in a collision with Iridium 33.

COSMOS 2251 DEB was lifted into orbit during the mission ‘Kosmos-3M | Strela-2M 51’, on board a Kosmos-3M space rocket.

The launch took place on June 16, 1993, 4:17 a.m. from 132/1 (132L).

For more information about the launch, click the button.

Launch to space Kosmos-3M | Strela-2M 51
Kosmos-3M | Strela-2M 51

Agency: N/A

Status: Launch Successful

Launch date: June 16, 1993, 4:17 a.m. UTC

Rocket: Kosmos-3M

Launch pad: 132/1 (132L)

Location: Plesetsk Cosmodrome, Russian Federation

...

Latest news about this satellite

There are no fresh news available about this satellite. Check back as we update our databases every day.


Newsletter sign-up

Weekly statistics, charts and insights to help you stay on top of the space industry.